Preview of NWS' New Version of Forecast
This preview is not operational and should not be used for support decisions.
Latest weather observations around

Little Rock, Adams Field (KLIT)

Using English Units (Switch to International System of Units)
Date/ Time (CDT) Wind (mph) Vis. (mi) Weather Sky Cond. Temp (°F) Rel. Humidity Wind Chill (°F) Heat Index (°F) Pressure Precip. (in)
Air Dwpt 6 hour Altimeter (inHg) Sea level (inHg) 1 hr 3 hr 6 hr
Max Min
Apr 23 01:53   10 Cloudy BKN010 OVC030 54 52     93%     29.89 29.89      
Apr 23 00:53 W 9 10 Cloudy OVC010 54 52     93%     29.9 29.91      
Apr 22 23:53 WNW 8 10 Mostly Cloudy BKN013 54 52     93%     29.91 29.91      
Apr 22 23:18   10 Mostly Cloudy BKN013 BKN036 54 51     90%     29.91        
Apr 22 23:11 WNW 11 10 Mostly Cloudy SCT013 BKN034 54 51     90%     29.91        
Apr 22 22:23 W 11 10 Cloudy BKN014 OVC040 55 52     89%     29.92        
Apr 22 22:11 WNW 10 10 Cloudy FEW015 SCT028 OVC039 55 52     89%     29.92        
Apr 22 21:53 W 10 10 Cloudy SCT015 OVC027 56 52     87%     29.92 29.92      
Apr 22 20:53 WNW 11 10 Cloudy BKN016 BKN029 OVC034 56 52     87%     29.92 29.92      
Apr 22 20:46 NW 10 10 Cloudy SCT018 OVC031 56 52     87%     29.92        
Apr 22 19:53 NW 13 10 Cloudy OVC017 58 53     84%     29.9 29.91      
Apr 22 19:30 WNW 13 10 Cloudy BKN017 BKN029 OVC049 58 54     87%     29.9        
Apr 22 18:53   10 Mostly Cloudy FEW015 BKN044 BKN090 BKN250 58 55     90%     29.88 29.88      
Apr 22 17:53 NW 13 10 Cloudy BKN050 OVC080 62 55     78%     29.87 29.87      
Apr 22 16:53   10 Mostly Cloudy SCT035 BKN050 BKN250 65 56     73%     29.86 29.86      
Apr 22 15:53 NW 9 10 Cloudy OVC035 64 56     75%     29.86 29.87      
Apr 22 15:02 WNW 8 10 Cloudy SCT023 OVC031 64 56     75%     29.89        
Apr 22 14:53 WNW 9 10 Cloudy BKN023 OVC039 64 57     78%     29.89 29.89      
Apr 22 13:53 NW 9 10 Cloudy BKN018 OVC023 64 58     81%     29.91 29.91      
Apr 22 12:53 NW 9 10 Cloudy BKN012 OVC018 61 58     90%     29.91 29.92     0
Apr 22 11:53 NW 13 10 Cloudy BKN010 OVC020 59 58     96%     29.92 29.92 0    
Apr 22 11:38 NW 11 10 Cloudy BKN004 OVC025 59 58     96%     29.92   0    
Apr 22 11:28 NW 10 5 Light Rain and Fog/Mist SCT006 SCT014 OVC021 59 59     100%     29.92   0    
Apr 22 11:04 WNW 13 1 Heavy Rain and Fog/Mist BKN008 OVC012 57 57     100%     29.92   0    
Apr 22 10:59 W 10 2 Rain and Fog/Mist BKN008 OVC012 60 60     100%     29.92   0    
Apr 22 10:53 SSW 5 3 Rain and Fog/Mist BKN008 OVC014 60 60     100%     29.92 29.92 0    
Apr 22 10:47 SSW 6 4 Light Rain and Fog/Mist BKN008 OVC014 61 61     100%     29.92   0    
Apr 22 09:53 SSE 3 10 Cloudy FEW010 BKN023 OVC031 61 60     97%     29.92 29.92   0  
Apr 22 08:53 Calm 7 Cloudy SCT012 BKN023 OVC028 60 60     100%     29.92 29.92 0    
Apr 22 08:34 Calm 6 Light Rain and Fog/Mist BKN023 OVC031 59 59     100%     29.92   0    
Apr 22 07:53 Calm 6 Fog/Mist SCT014 OVC037 59 59     100%     29.93 29.93      
Apr 22 07:33 Calm 6 Fog/Mist SCT016 BKN037 OVC250 59 59     100%     29.93        
Apr 22 07:05 Calm 6 Fog/Mist SCT014 OVC020 58 58     100%     29.93        
Apr 22 06:53 Calm 7 Cloudy OVC014 58 58     100%     29.93 29.93     0
Apr 22 06:39 W 3 6 Fog/Mist BKN013 OVC020 58 58     100%     29.93        
Apr 22 05:53 Calm 6 Fog/Mist OVC015 58 58     100%     29.92 29.92      
Apr 22 05:37 ESE 3 10 Cloudy BKN015 OVC100 57 57     100%     29.92        
Apr 22 05:00 ESE 6 10 Partly Cloudy FEW008 SCT048 58 58     100%     29.92        
Apr 22 04:53 E 7 10 Cloudy BKN008 OVC100 58 58     100%     29.92 29.92      
Apr 22 04:25 E 8 10 Cloudy BKN007 BKN080 OVC110 58 58     100%     29.94        
Apr 22 04:19 3 10 Cloudy SCT008 BKN080 OVC110 58 58     100%     29.94        
Apr 22 03:53 E 9 10 Cloudy OVC110 58 58     100%     29.92 29.92   0  
Apr 22 02:53 ESE 13 7 Cloudy SCT005 OVC100 58 58     100%     29.95 29.95 0    
Apr 22 01:53 SE 6 3 Light Rain and Fog/Mist SCT005 OVC028 57 57     100%     30.04 30.04 0    
Apr 22 01:09 SE 9 3 Light Rain and Fog/Mist SCT030 OVC060 57 57     100%     30.05   0    
Apr 22 00:53 Calm 2.5 Rain and Fog/Mist SCT030 OVC060 57 57     100%     30.06 30.07 0   1
Apr 21 23:53 N 5 2 Heavy Rain and Fog/Mist SCT041 OVC049 57 57     100%     30.08 30.08 0    
Apr 21 23:42 WNW 6 1.75 Heavy Rain and Fog/Mist BKN041 OVC055 58 58     100%     30.08   0    
Apr 21 23:30 W 7 2.5 Heavy Rain and Fog/Mist FEW030 SCT041 OVC050 58 57     97%     30.09   0    
Apr 21 23:17 NW 10 3 Rain and Fog/Mist BKN055 OVC070 58 58     100%     30.06   0    
Apr 21 23:06 W 8 2 Heavy Rain and Fog/Mist SCT043 OVC060 58 58     100%     30.06   0    
Apr 21 22:53 W 9 4 Rain and Fog/Mist FEW043 BKN050 OVC065 59 57     93%     30.06 30.06 0    
Apr 21 21:53 NE 7 10 Light Rain OVC090 62 53     72%     30.02 30.02 0 0  
Apr 21 20:53 NE 9 10 Light Rain FEW080 OVC100 62 52     70%     30.01 30.01 0    
Apr 21 19:53 SE 8 10 Cloudy FEW060 BKN110 OVC150 66 50     56%     30.03 30.03      
Apr 21 18:53 E 11 10 Cloudy FEW100 OVC150 66 49     54%     30.02 30.02      
Apr 21 17:53 ENE 5 10 Cloudy FEW040 FEW090 SCT120 OVC200 67 52     59%     30.07 30.07      
Apr 21 16:53 S 3 10 Cloudy FEW039 FEW090 BKN120 OVC200 68 49     50%     30.07 30.08      
Apr 21 15:53 SE 13 10 Cloudy FEW070 BKN120 OVC200 69 48     47%     30.06 30.06      
Apr 21 14:53 ESE 15 10 Cloudy FEW070 BKN120 OVC200 70 47     44%     30.05 30.06      
Apr 21 13:53 SE 15 10 Cloudy FEW070 BKN120 OVC200 72 46     40%   71 30.09 30.09      
Apr 21 12:53 ESE 11 10 Mostly Cloudy FEW070 BKN120 BKN200 69 46     44%     30.11 30.11     0
Apr 21 11:53 ESE 11 10 Mostly Cloudy FEW065 BKN120 BKN200 67 46     47%     30.15 30.16      
Apr 21 10:53 ESE 8 10 Cloudy SCT065 BKN120 OVC200 60 45     57%     30.19 30.19 0    
Apr 21 09:53 ESE 10 10 Cloudy BKN100 OVC200 57 43     59%     30.19 30.19      
Apr 21 08:53 E 13 10 Mostly Cloudy BKN100 BKN250 56 43     62%     30.2 30.2      
Apr 21 07:53 ENE 6 10 Mostly Cloudy BKN150 BKN250 51 43     74%     30.22 30.23      
Apr 21 06:53 N 5 10 Mostly Cloudy BKN120 BKN250 47 41     80% 45   30.2 30.21      
Apr 21 05:53 NE 5 10 Mostly Cloudy BKN120 47 40     76% 45   30.19 30.19      
Apr 21 04:53 ENE 5 10 Partly Cloudy SCT250 47 39     74% 45   30.19 30.19      
Apr 21 03:53 NNW 3 10 Partly Cloudy SCT250 48 40     73% 47   30.2 30.2      
Apr 21 02:53 ENE 5 10 Clear CLR 50 40     68% 48   30.18 30.19      
Apr 21 01:53 Calm 10 Partly Cloudy SCT250 51 39     63%     30.2 30.2      
Apr 21 00:53 ENE 6 10 Partly Cloudy SCT250 48 39     71% 45   30.2 30.21      
Apr 20 23:53 NE 7 10 Mostly Cloudy BKN250 50 40     68% 47   30.2 30.21      
Apr 20 22:53 NE 3 10 Mostly Cloudy BKN250 51 39     63%     30.22 30.22      
Apr 20 21:53 Calm 10 Partly Cloudy SCT250 54 39     57%     30.22 30.23      
Apr 20 20:53 NE 3 10 Partly Cloudy SCT250 59 36     42%     30.23 30.23      
Apr 20 19:53 E 6 10 Mostly Cloudy BKN250 59 35     41%     30.2 30.21      
Apr 20 17:53 E 10 10 Partly Cloudy SCT250 66 33     29%     30.23 30.23      
Apr 20 16:53 ENE 13 10 Partly Cloudy SCT250 67 33     28%     30.25 30.25      
Apr 20 15:53 E 14 10 Partly Cloudy SCT250 65 32     29%     30.27 30.28   0  
Apr 20 14:53   10 Partly Cloudy SCT250 65 33     30%     30.31 30.32      
Apr 20 13:53 E 10 10 Clear CLR 64 33     31%     30.34 30.35      
Apr 20 12:53 ENE 11 10 Mostly Clear FEW250 62 34     35%     30.36 30.37      
Apr 20 11:53 E 10 10 Mostly Clear FEW250 58 34     40%     30.4 30.41      
Apr 20 10:53 E 15 10 Clear CLR 57 36     45%     30.42 30.43      
Apr 20 09:53 E 14 10 Mostly Clear FEW250 54 36     50%     30.42 30.42      
Apr 20 08:53 ENE 9 10 Mostly Clear FEW250 50 38     63% 46   30.42 30.43      
Apr 20 07:53 NNE 6 10 Mostly Clear FEW250 45 38     76% 42   30.43 30.44      
Apr 20 06:53 NNE 6 10 Mostly Clear FEW250 39 36     89% 35   30.41 30.42      
Apr 20 05:53 ENE 3 10 Mostly Clear FEW250 39 36     89% 37   30.38 30.38      
Apr 20 04:53 NE 7 10 Mostly Clear FEW250 39 36     89% 34   30.37 30.38      
Apr 20 03:53 N 7 10 Clear CLR 41 36     82% 36   30.39 30.4      
Apr 20 02:53 N 6 10 Clear CLR 42 36     79% 38   30.38 30.39      
Apr 20 01:53 NNE 6 10 Clear CLR 42 36     79% 38   30.38 30.39      
Jun 12 06:38 SSE 5 1 Light Drizzle and Fog/Mist SKC OVC005 71 71     100%   73 30.04   0    
Jun 12 03:28 S 6 10 Mostly Cloudy BKN013 72 70     93%   73 30        
Jun 11 18:53 S 10 10 Mostly Clear FEW050 86 67     53%   89 29.96 29.95      
Jun 11 15:53 S 10 10 Partly Cloudy SCT050 87 66     50%   89 29.99 29.99      
Jun 11 13:53 S 11 10 Partly Cloudy SCT050 87 64     46%   88 30.03 30.02      
Jun 11 08:53 S 6 10 Partly Cloudy SCT065 76 69     79%   77 30.04 30.03      
Jun 09 18:53 S 6 10 Mostly Cloudy FEW030 BKN250 78 57     48%   78 29.91 29.91      
Jun 09 14:53   10 Mostly Cloudy FEW060 BKN250 82 53     37%   81 29.95 29.95      
Jun 09 04:53 WSW 3 10 Clear CLR 59 59     100%     29.93 29.93      
Jun 06 12:53 ENE 13 10 Partly Cloudy SCT030 86 69     57%   90 29.82 29.82      
Jun 06 11:53 NE 11 10 Partly Cloudy SCT026 85 72     65%   91 29.83 29.82      
Jun 06 09:53 NE 10 10 Partly Cloudy FEW015 SCT250 80 73     79%   84 29.84 29.84      
Jun 05 13:53 E 5 7 Mostly Cloudy FEW015 BKN025 BKN250 77 71     82%   78 29.77 29.76 0